Regional Weather Roundup
Issued by NWS

Home | Current Version | Previous Version | Graphics & Text | Print | Product List | Glossary On
Versions: 1 2 3 4 5 6 7 8 9 10 11 12 13 14 15 16 17 18 19 20 21 22 23 24 25 26 27 28 29 30 31 32 33 34 35 36 37 38 39 40 41 42 43 44 45 46 47 48 49 50
000
ASUS45 KBOU 132010
RWRCO

WEATHER ROUNDUP FOR COLORADO
NATIONAL WEATHER SERVICE DENVER/BOULDER CO
100 PM MST WED DEC 13 2017

NOTE: "FAIR" INDICATES FEW OR NO CLOUDS BELOW 12000 FEET WITH NO
SIGNIFICANT WEATHER AND/OR OBSTRUCTIONS TO VISIBILITY.

COZ001>005-013-030-031-132100-
...NORTHWEST COLORADO...

CITY           SKY/WX    TMP DP  RH WIND       PRES   REMARKS
CRAIG          CLOUDY    35  20  54 CALM      30.14F
HAYDEN         CLOUDY    34  22  61 CALM      30.15F
MEEKER         CLOUDY    42  14  32 SE3       30.13F
RABBIT EARS PA FAIR      30   1  29 W9G16     30.16F WCI  22
STEAMBOAT SPGS CLOUDY    34  20  57 CALM      30.13F
WALDEN         FAIR      41   5  22 SW9       30.11F
$$

COZ006>008-011-132100-
...WEST CENTRAL VALLEYS...

CITY           SKY/WX    TMP DP  RH WIND       PRES   REMARKS
GRAND JUNCTION CLOUDY    42  13  30 CALM      30.13F
MONTROSE       CLOUDY    44  12  27 N5        30.14F
EAGLE          CLOUDY    30  17  58 CALM      30.18F
RIFLE          CLOUDY    39  14  36 N3        30.15F
DELTA          CLOUDY    45  11  25 CALM      30.13F
NUCLA          FAIR      45   7  21 CALM      30.17F
$$

COZ017>023-064>068-132100-
...SOUTHWEST COLORADO...

CITY           SKY/WX    TMP DP  RH WIND       PRES   REMARKS
DURANGO        FAIR      46   8  21 W5        30.11F
CORTEZ         FAIR      44   6  21 SW13      30.13F
PAGOSA SPRINGS CLOUDY    46   2  15 E5        30.14F
TELLURIDE      FAIR      51   1  13 W7        30.18F
WOLF CREEK PAS FAIR      34  -6  18 S5        30.30F WCI  30
$$

COZ009-010-012-014-032>034-037-058>063-132100-
...CENTRAL COLORADO...

CITY           SKY/WX    TMP DP  RH WIND       PRES   REMARKS
ASPEN          CLOUDY    42  13  30 N5        30.12F
BUENA VISTA    CLOUDY    50  -3  11 NW12      30.09F
COPPER MTN     NOT AVBL
BERTHOUD PASS  PTSUNNY   21  10  63 NW28G35   30.17F WCI   3
COTTONWOOD PAS CLOUDY    50 -15   6 W12G28    30.15F
GUNNISON       FAIR      33  10  38 CALM      30.19F
KREMMLING      CLOUDY    32  19  59 CALM      30.17F
LEADVILLE      CLOUDY    38   0  20 N6        30.15F
MONARCH PASS   FAIR      28   1  31 SW22G28   30.33F WCI  15
SALIDA         FAIR      51  -3  10 CALM      30.16F
SUNLIGHT       CLOUDY    32   9  37 SW7       30.25F WCI  26
WILKERSON PASS PTSUNNY   32  -9  16 W8        30.20F WCI  25
$$

COZ069>075-132100-
...SAN LUIS VALLEY/SANGRE DE CRISTO MOUNTAINS...

CITY           SKY/WX    TMP DP  RH WIND       PRES   REMARKS
ALAMOSA        FAIR      45   6  20 CALM      30.11F
DEL NORTE      FAIR      45   7  20 E6        30.12F
LA VETA PASS   FAIR      45   9  23 S13G20      N/A
SAGUACHE       FAIR      43   9  24 SE9       30.12F
$$

COZ035-036-038>040-132100-
...NORTHERN COLORADO FRONT RANGE...

CITY           SKY/WX    TMP DP  RH WIND       PRES   REMARKS
DENVER INTL AP FAIR      50   8  18 CALM      30.06F
DMNS CITY PARK NOT AVBL
AURORA         MOSUNNY   48   9  20 E5        30.07F
FRONT RANGE AP MOSUNNY   50  10  20 CALM      30.07F
ERIE MUNI ARPT FAIR      52   4  14 SE8       30.11F
BOULDER MUN AP FAIR      52   9  17 SE8       30.05F
CENTENNIAL     PTSUNNY   48  11  22 E8        30.06F
BROOMFIELD     MOSUNNY   50   9  18 SE8       30.07F
FORT COLLINS   FAIR      53  10  18 S9        30.05F
LONGMONT       FAIR      56   7  14 S7        30.06F
$$

COZ041-046-047-076>085-087-088-132100-
...PIKES PEAK/PALMER DIVIDE AND SOUTHERN FOOTHILLS...

CITY           SKY/WX    TMP DP  RH WIND       PRES   REMARKS
COLO. SPRINGS  FAIR      47   8  20 S13       30.09F
A. F. ACADEMY  FAIR      50   2  14 NE3       30.07F
SCHRIEVER AFB  FAIR      46   4  17 SW9       30.09F
CHEYENNE MTN   FAIR      42   7  23 SE8       30.03F
ELLICOTT         N/A    N/A N/A N/A CALM      30.07F
FALCON         FAIR      50   3  15 S7        30.10F
FORT CARSON    FAIR      47   7  19 S9        30.07F
LIMON          FAIR      51  10  19 N20       30.06F
MONUMENT HILL  FAIR      43   9  24 CALM      30.10F
CANON CITY     FAIR      52  10  19 NE6       30.08F
WALSENBURG     FAIR      54   9  16 E10       30.08F
TRINIDAD       FAIR      51   9  18 E10       30.09F
$$

COZ042>045-048>051-090-091-132100-
...NORTHEAST COLORADO...

CITY           SKY/WX    TMP DP  RH WIND       PRES   REMARKS
GREELEY ARPT   FAIR      53  11  18 CALM      30.05F
AKRON          FAIR      50  12  21 N22G36    30.05F
BURLINGTON     FAIR      53  13  20 N21G33    30.02F
WRAY           FAIR      55  12  18 NW28G33   30.01F
YUMA           FAIR      50  12  22 NW21G28   30.03F
STERLING       FAIR      54  16  22 N23G30    30.03F
HOLYOKE        FAIR      54  14  20 NW28G36   30.01F
FORT MORGAN    FAIR      53   9  17 N17G28    30.06F
$$

COZ086-089-092>099-132100-
...SOUTHEAST COLORADO...

CITY           SKY/WX    TMP DP  RH WIND       PRES   REMARKS
PUEBLO         FAIR      55   7  14 CALM      30.07F
LA JUNTA       FAIR      56  12  17 N5        30.07F
LAMAR          FAIR      58  13  17 N10       30.03F
SPRINGFIELD      N/A     56  14  19 N16       30.05F
$$



USA.gov is the U.S. government's official web portal to all federal, state and local government web resources and services.